Year,Month,Day,Hour,Minute,Value (Times are PST for temperature in C)
2014,07,11,00,00,17.60
2014,07,11,00,01,17.50
2014,07,11,00,02,17.50
2014,07,11,00,03,17.50
2014,07,11,00,04,17.40
2014,07,11,00,05,17.40
2014,07,11,00,06,17.30
2014,07,11,00,07,17.30
2014,07,11,00,08,17.30
2014,07,11,00,09,17.30
2014,07,11,00,10,17.30
2014,07,11,00,11,17.30
2014,07,11,00,12,17.20
2014,07,11,00,13,17.20
2014,07,11,00,14,17.20
2014,07,11,00,15,17.10
2014,07,11,00,16,17.10
2014,07,11,00,17,17.10
2014,07,11,00,18,17.00
2014,07,11,00,19,17.00
2014,07,11,00,20,17.00
2014,07,11,00,21,16.90
2014,07,11,00,22,16.90
2014,07,11,00,23,16.90
2014,07,11,00,24,16.90
2014,07,11,00,25,16.80
2014,07,11,00,26,16.80
2014,07,11,00,27,16.70
2014,07,11,00,28,16.70
2014,07,11,00,29,16.70
2014,07,11,00,30,16.70
2014,07,11,00,31,16.70
2014,07,11,00,32,16.70
2014,07,11,00,33,16.70
2014,07,11,00,34,16.70
2014,07,11,00,35,16.70
2014,07,11,00,36,16.60
2014,07,11,00,37,16.60
2014,07,11,00,38,16.60
2014,07,11,00,39,16.60
2014,07,11,00,40,16.60
2014,07,11,00,41,16.60
2014,07,11,00,42,16.60
2014,07,11,00,43,16.60
2014,07,11,00,44,16.60
2014,07,11,00,45,16.60
2014,07,11,00,46,16.60
2014,07,11,00,47,16.60
2014,07,11,00,48,16.60
2014,07,11,00,49,16.60
2014,07,11,00,50,16.70
2014,07,11,00,51,16.70
2014,07,11,00,52,16.70
2014,07,11,00,53,16.70
2014,07,11,00,54,16.70
2014,07,11,00,55,16.80
2014,07,11,00,56,16.80
2014,07,11,00,57,16.80
2014,07,11,00,58,16.80
2014,07,11,00,59,16.80
2014,07,11,01,00,16.70
2014,07,11,01,01,16.70
2014,07,11,01,02,16.70
2014,07,11,01,03,16.70
2014,07,11,01,04,16.70
2014,07,11,01,05,16.70
2014,07,11,01,06,16.60
2014,07,11,01,07,16.60
2014,07,11,01,08,16.60
2014,07,11,01,09,16.60
2014,07,11,01,10,16.50
2014,07,11,01,11,16.40
2014,07,11,01,12,16.40
2014,07,11,01,13,16.40
2014,07,11,01,14,16.40
2014,07,11,01,15,16.40
2014,07,11,01,16,16.30
2014,07,11,01,17,16.30
2014,07,11,01,18,16.30
2014,07,11,01,19,16.30
2014,07,11,01,20,16.20
2014,07,11,01,21,16.20
2014,07,11,01,22,16.20
2014,07,11,01,23,16.20
2014,07,11,01,24,16.10
2014,07,11,01,25,16.10
2014,07,11,01,26,16.10
2014,07,11,01,27,16.10
2014,07,11,01,28,16.10
2014,07,11,01,29,16.10
2014,07,11,01,30,16.10
2014,07,11,01,31,16.10
2014,07,11,01,32,16.00
2014,07,11,01,33,15.90
2014,07,11,01,34,15.90
2014,07,11,01,35,15.90
2014,07,11,01,36,15.90
2014,07,11,01,37,15.80
2014,07,11,01,38,15.80
2014,07,11,01,39,15.80
2014,07,11,01,40,15.80
2014,07,11,01,41,15.80
2014,07,11,01,42,15.80
2014,07,11,01,43,15.80
2014,07,11,01,44,15.80
2014,07,11,01,45,15.80
2014,07,11,01,46,15.80
2014,07,11,01,47,15.70
2014,07,11,01,48,15.70
2014,07,11,01,49,15.70
2014,07,11,01,50,15.70
2014,07,11,01,51,15.60
2014,07,11,01,52,15.60
2014,07,11,01,53,15.60
2014,07,11,01,54,15.60
2014,07,11,01,55,15.50
2014,07,11,01,56,15.50
2014,07,11,01,57,15.50
2014,07,11,01,58,15.50
2014,07,11,01,59,15.50
2014,07,11,02,00,15.50
2014,07,11,02,01,15.40
2014,07,11,02,02,15.40
2014,07,11,02,03,15.40
2014,07,11,02,04,15.40
2014,07,11,02,05,15.40
2014,07,11,02,06,15.40
2014,07,11,02,07,15.40
2014,07,11,02,08,15.40
2014,07,11,02,09,15.40
2014,07,11,02,10,15.40
2014,07,11,02,11,15.40
2014,07,11,02,12,15.40
2014,07,11,02,13,15.40
2014,07,11,02,14,15.40
2014,07,11,02,15,15.40
2014,07,11,02,16,15.40
2014,07,11,02,17,15.40
2014,07,11,02,18,15.40
2014,07,11,02,19,15.40
2014,07,11,02,20,15.40
2014,07,11,02,21,15.40
2014,07,11,02,22,15.30
2014,07,11,02,23,15.30
2014,07,11,02,24,15.30
2014,07,11,02,25,15.30
2014,07,11,02,26,15.30
2014,07,11,02,27,15.30
2014,07,11,02,28,15.30
2014,07,11,02,29,15.30
2014,07,11,02,30,15.30
2014,07,11,02,31,15.30
2014,07,11,02,32,15.30
2014,07,11,02,33,15.20
2014,07,11,02,34,15.20
2014,07,11,02,35,15.20
2014,07,11,02,36,15.20
2014,07,11,02,37,15.20
2014,07,11,02,38,15.10
2014,07,11,02,39,15.10
2014,07,11,02,40,15.10
2014,07,11,02,41,15.10
2014,07,11,02,42,15.10
2014,07,11,02,43,15.10
2014,07,11,02,44,15.00
2014,07,11,02,45,15.00
2014,07,11,02,46,15.00
2014,07,11,02,47,15.00
2014,07,11,02,48,15.00
2014,07,11,02,49,15.00
2014,07,11,02,50,15.00
2014,07,11,02,51,14.90
2014,07,11,02,52,14.90
2014,07,11,02,53,14.90
2014,07,11,02,54,14.90
2014,07,11,02,55,14.90
2014,07,11,02,56,14.90
2014,07,11,02,57,14.80
2014,07,11,02,58,14.80
2014,07,11,02,59,14.80
2014,07,11,03,00,14.80
2014,07,11,03,01,14.80
2014,07,11,03,02,14.80
2014,07,11,03,03,14.80
2014,07,11,03,04,14.80
2014,07,11,03,05,14.80
2014,07,11,03,06,14.80
2014,07,11,03,07,14.80
2014,07,11,03,08,14.80
2014,07,11,03,09,14.80
2014,07,11,03,10,14.70
2014,07,11,03,11,14.70
2014,07,11,03,12,14.70
2014,07,11,03,13,14.70
2014,07,11,03,14,14.60
2014,07,11,03,15,14.60
2014,07,11,03,16,14.60
2014,07,11,03,17,14.60
2014,07,11,03,18,14.60
2014,07,11,03,19,14.60
2014,07,11,03,20,14.60
2014,07,11,03,21,14.60
2014,07,11,03,22,14.50
2014,07,11,03,23,14.50
2014,07,11,03,24,14.50
2014,07,11,03,25,14.50
2014,07,11,03,26,14.50
2014,07,11,03,27,14.50
2014,07,11,03,28,14.50
2014,07,11,03,29,14.50
2014,07,11,03,30,14.50
2014,07,11,03,31,14.50
2014,07,11,03,32,14.50
2014,07,11,03,33,14.50
2014,07,11,03,34,14.50
2014,07,11,03,35,14.50
2014,07,11,03,36,14.50
2014,07,11,03,37,14.50
2014,07,11,03,38,14.40
2014,07,11,03,39,14.40
2014,07,11,03,40,14.40
2014,07,11,03,41,14.40
2014,07,11,03,42,14.30
2014,07,11,03,43,14.30
2014,07,11,03,44,14.30
2014,07,11,03,45,14.30
2014,07,11,03,46,14.20
2014,07,11,03,47,14.20
2014,07,11,03,48,14.20
2014,07,11,03,49,14.20
2014,07,11,03,50,14.20
2014,07,11,03,51,14.20
2014,07,11,03,52,14.20
2014,07,11,03,53,14.20
2014,07,11,03,54,14.20
2014,07,11,03,55,14.20
2014,07,11,03,56,14.20
2014,07,11,03,57,14.20
2014,07,11,03,58,14.10
2014,07,11,03,59,14.10
2014,07,11,04,00,14.10
2014,07,11,04,01,14.10
2014,07,11,04,02,14.00
2014,07,11,04,03,14.00
2014,07,11,04,04,14.00
2014,07,11,04,05,14.00
2014,07,11,04,06,14.00
2014,07,11,04,07,14.00
2014,07,11,04,08,14.00
2014,07,11,04,09,14.10
2014,07,11,04,10,14.10
2014,07,11,04,11,14.10
2014,07,11,04,12,14.10
2014,07,11,04,13,14.00
2014,07,11,04,14,14.00
2014,07,11,04,15,14.00
2014,07,11,04,16,14.00
2014,07,11,04,17,14.00
2014,07,11,04,18,13.90
2014,07,11,04,19,13.90
2014,07,11,04,20,13.90
2014,07,11,04,21,13.90
2014,07,11,04,22,13.90
2014,07,11,04,23,13.90
2014,07,11,04,24,13.90
2014,07,11,04,25,13.90
2014,07,11,04,26,13.90
2014,07,11,04,27,13.90
2014,07,11,04,28,13.90
2014,07,11,04,29,13.90
2014,07,11,04,30,13.90
2014,07,11,04,31,13.90
2014,07,11,04,32,13.80
2014,07,11,04,33,13.80
2014,07,11,04,34,13.80
2014,07,11,04,35,13.80
2014,07,11,04,36,13.80
2014,07,11,04,37,13.80
2014,07,11,04,38,13.80
2014,07,11,04,39,13.80
2014,07,11,04,40,13.70
2014,07,11,04,41,13.70
2014,07,11,04,42,13.70
2014,07,11,04,43,13.70
2014,07,11,04,44,13.70
2014,07,11,04,45,13.70
2014,07,11,04,46,13.70
2014,07,11,04,47,13.70
2014,07,11,04,48,13.70
2014,07,11,04,49,13.70
2014,07,11,04,50,13.70
2014,07,11,04,51,13.70
2014,07,11,04,52,13.70
2014,07,11,04,53,13.70
2014,07,11,04,54,13.70
2014,07,11,04,55,13.70
2014,07,11,04,56,13.70
2014,07,11,04,57,13.70
2014,07,11,04,58,13.70
2014,07,11,04,59,13.60
2014,07,11,05,00,13.60
2014,07,11,05,01,13.60
2014,07,11,05,02,13.60
2014,07,11,05,03,13.60
2014,07,11,05,04,13.50
2014,07,11,05,05,13.50
2014,07,11,05,06,13.50
2014,07,11,05,07,13.50
2014,07,11,05,08,13.60
2014,07,11,05,09,13.60
2014,07,11,05,10,13.60
2014,07,11,05,11,13.60
2014,07,11,05,12,13.60
2014,07,11,05,13,13.60
2014,07,11,05,14,13.60
2014,07,11,05,15,13.50
2014,07,11,05,16,13.50
2014,07,11,05,17,13.50
2014,07,11,05,18,13.50
2014,07,11,05,19,13.50
2014,07,11,05,20,13.50
2014,07,11,05,21,13.50
2014,07,11,05,22,13.50
2014,07,11,05,23,13.50
2014,07,11,05,24,13.50
2014,07,11,05,25,13.50
2014,07,11,05,26,13.50
2014,07,11,05,27,13.50
2014,07,11,05,28,13.40
2014,07,11,05,29,13.40
2014,07,11,05,30,13.40
2014,07,11,05,31,13.40
2014,07,11,05,32,13.40
2014,07,11,05,33,13.30
2014,07,11,05,34,13.30
2014,07,11,05,35,13.30
2014,07,11,05,36,13.30
2014,07,11,05,37,13.30
2014,07,11,05,38,13.30
2014,07,11,05,39,13.30
2014,07,11,05,40,13.30
2014,07,11,05,41,13.30
2014,07,11,05,42,13.30
2014,07,11,05,43,13.30
2014,07,11,05,44,13.30
2014,07,11,05,45,13.30
2014,07,11,05,46,13.30
2014,07,11,05,47,13.30
2014,07,11,05,48,13.30
2014,07,11,05,49,13.30
2014,07,11,05,50,13.30
2014,07,11,05,51,13.30
2014,07,11,05,52,13.30
2014,07,11,05,53,13.30
2014,07,11,05,54,13.30
2014,07,11,05,55,13.30
2014,07,11,05,56,13.30
2014,07,11,05,57,13.40
2014,07,11,05,58,13.40
2014,07,11,05,59,13.40
2014,07,11,06,00,13.40
2014,07,11,06,01,13.40
2014,07,11,06,02,13.50
2014,07,11,06,03,13.50
2014,07,11,06,04,13.50
2014,07,11,06,05,13.50
2014,07,11,06,06,13.50
2014,07,11,06,07,13.50
2014,07,11,06,08,13.60
2014,07,11,06,09,13.60
2014,07,11,06,10,13.70
2014,07,11,06,11,13.70
2014,07,11,06,12,13.70
2014,07,11,06,13,13.70
2014,07,11,06,14,13.70
2014,07,11,06,15,13.80
2014,07,11,06,16,13.80
2014,07,11,06,17,13.80
2014,07,11,06,18,13.80
2014,07,11,06,19,13.90
2014,07,11,06,20,13.90
2014,07,11,06,21,13.90
2014,07,11,06,22,14.00
2014,07,11,06,23,14.00
2014,07,11,06,24,14.10
2014,07,11,06,25,14.10
2014,07,11,06,26,14.20
2014,07,11,06,27,14.20
2014,07,11,06,28,14.20
2014,07,11,06,29,14.30
2014,07,11,06,30,14.40
2014,07,11,06,31,14.50
2014,07,11,06,32,14.50
2014,07,11,06,33,14.60
2014,07,11,06,34,14.60
2014,07,11,06,35,14.60
2014,07,11,06,36,14.70
2014,07,11,06,37,14.70
2014,07,11,06,38,14.80
2014,07,11,06,39,14.80
2014,07,11,06,40,14.90
2014,07,11,06,41,14.90
2014,07,11,06,42,15.00
2014,07,11,06,43,15.00
2014,07,11,06,44,15.10
2014,07,11,06,45,15.10
2014,07,11,06,46,15.20
2014,07,11,06,47,15.20
2014,07,11,06,48,15.30
2014,07,11,06,49,15.50
2014,07,11,06,50,15.50
2014,07,11,06,51,15.60
2014,07,11,06,52,15.70
2014,07,11,06,53,15.80
2014,07,11,06,54,15.90
2014,07,11,06,55,16.00
2014,07,11,06,56,16.10
2014,07,11,06,57,16.20
2014,07,11,06,58,16.20
2014,07,11,06,59,16.20
2014,07,11,07,00,16.30
2014,07,11,07,01,16.30
2014,07,11,07,02,16.40
2014,07,11,07,03,16.40
2014,07,11,07,04,16.40
2014,07,11,07,05,16.40
2014,07,11,07,06,16.50
2014,07,11,07,07,16.60
2014,07,11,07,08,16.60
2014,07,11,07,09,16.70
2014,07,11,07,10,16.70
2014,07,11,07,11,16.70
2014,07,11,07,12,16.70
2014,07,11,07,13,16.70
2014,07,11,07,14,16.80
2014,07,11,07,15,16.90
2014,07,11,07,16,16.90
2014,07,11,07,17,17.00
2014,07,11,07,18,17.00
2014,07,11,07,19,17.10
2014,07,11,07,20,17.20
2014,07,11,07,21,17.20
2014,07,11,07,22,17.30
2014,07,11,07,23,17.30
2014,07,11,07,24,17.40
2014,07,11,07,25,17.40
2014,07,11,07,26,17.50
2014,07,11,07,27,17.60
2014,07,11,07,28,17.60
2014,07,11,07,29,17.70
2014,07,11,07,30,17.80
2014,07,11,07,31,17.90
2014,07,11,07,32,18.00
2014,07,11,07,33,18.10
2014,07,11,07,34,18.20
2014,07,11,07,35,18.20
2014,07,11,07,36,18.30
2014,07,11,07,37,18.40
2014,07,11,07,38,18.40
2014,07,11,07,39,18.50
2014,07,11,07,40,18.50
2014,07,11,07,41,18.60
2014,07,11,07,42,18.60
2014,07,11,07,43,18.70
2014,07,11,07,44,18.70
2014,07,11,07,45,18.80
2014,07,11,07,46,18.80
2014,07,11,07,47,18.90
2014,07,11,07,48,18.90
2014,07,11,07,49,18.90
2014,07,11,07,50,19.00
2014,07,11,07,51,19.10
2014,07,11,07,52,19.10
2014,07,11,07,53,19.20
2014,07,11,07,54,19.30
2014,07,11,07,55,19.40
2014,07,11,07,56,19.40
2014,07,11,07,57,19.50
2014,07,11,07,58,19.60
2014,07,11,07,59,19.50
2014,07,11,08,00,19.50
2014,07,11,08,01,19.60
2014,07,11,08,02,19.60
2014,07,11,08,03,19.70
2014,07,11,08,04,19.70
2014,07,11,08,05,19.90
2014,07,11,08,06,19.90
2014,07,11,08,07,20.00
2014,07,11,08,08,20.10
2014,07,11,08,09,20.20
2014,07,11,08,10,20.20
2014,07,11,08,11,20.30
2014,07,11,08,12,20.30
2014,07,11,08,13,20.40
2014,07,11,08,14,20.40
2014,07,11,08,15,20.50
2014,07,11,08,16,20.50
2014,07,11,08,17,20.60
2014,07,11,08,18,20.60
2014,07,11,08,19,20.60
2014,07,11,08,20,20.70
2014,07,11,08,21,20.70
2014,07,11,08,22,20.80
2014,07,11,08,23,20.90
2014,07,11,08,24,21.00
2014,07,11,08,25,21.10
2014,07,11,08,26,21.20
2014,07,11,08,27,21.30
2014,07,11,08,28,21.30
2014,07,11,08,29,21.30
2014,07,11,08,30,21.30
2014,07,11,08,31,21.30
2014,07,11,08,32,21.30
2014,07,11,08,33,21.30
2014,07,11,08,34,21.40
2014,07,11,08,35,21.40
2014,07,11,08,36,21.40
2014,07,11,08,37,21.40
2014,07,11,08,38,21.30
2014,07,11,08,39,21.30
2014,07,11,08,40,21.30
2014,07,11,08,41,21.30
2014,07,11,08,42,21.30
2014,07,11,08,43,21.30
2014,07,11,08,44,21.30
2014,07,11,08,45,21.30
2014,07,11,08,46,21.40
2014,07,11,08,47,21.50
2014,07,11,08,48,21.60
2014,07,11,08,49,21.70
2014,07,11,08,50,21.70
2014,07,11,08,51,21.80
2014,07,11,08,52,21.90
2014,07,11,08,53,22.00
2014,07,11,08,54,22.10
2014,07,11,08,55,22.20
2014,07,11,08,56,22.30
2014,07,11,08,57,22.40
2014,07,11,08,58,22.40
2014,07,11,08,59,22.40
2014,07,11,09,00,22.30
2014,07,11,09,01,22.20
2014,07,11,09,02,22.20
2014,07,11,09,03,22.10
2014,07,11,09,04,22.10
2014,07,11,09,05,22.00
2014,07,11,09,06,22.00
2014,07,11,09,07,22.00
2014,07,11,09,08,22.10
2014,07,11,09,09,22.10
2014,07,11,09,10,22.10
2014,07,11,09,11,22.10
2014,07,11,09,12,22.20
2014,07,11,09,13,22.20
2014,07,11,09,14,22.20
2014,07,11,09,15,22.20
2014,07,11,09,16,22.20
2014,07,11,09,17,22.20
2014,07,11,09,18,22.20
2014,07,11,09,19,22.20
2014,07,11,09,20,22.20
2014,07,11,09,21,22.10
2014,07,11,09,22,22.20
2014,07,11,09,23,22.20
2014,07,11,09,24,22.30
2014,07,11,09,25,22.30
2014,07,11,09,26,22.30
2014,07,11,09,27,22.30
2014,07,11,09,28,22.20
2014,07,11,09,29,22.10
2014,07,11,09,30,22.20
2014,07,11,09,31,22.20
2014,07,11,09,32,22.20
2014,07,11,09,33,22.10
2014,07,11,09,34,22.20
2014,07,11,09,35,22.20
2014,07,11,09,36,22.30
2014,07,11,09,37,22.40
2014,07,11,09,38,22.50
2014,07,11,09,39,22.50
2014,07,11,09,40,22.50
2014,07,11,09,41,22.40
2014,07,11,09,42,22.30
2014,07,11,09,43,22.40
2014,07,11,09,44,22.40
2014,07,11,09,45,22.50
2014,07,11,09,46,22.60
2014,07,11,09,47,22.70
2014,07,11,09,48,22.90
2014,07,11,09,49,22.90
2014,07,11,09,50,22.90
2014,07,11,09,51,22.80
2014,07,11,09,52,22.80
2014,07,11,09,53,22.80
2014,07,11,09,54,22.80
2014,07,11,09,55,22.90
2014,07,11,09,56,22.80
2014,07,11,09,57,22.80
2014,07,11,09,58,22.90
2014,07,11,09,59,22.80
2014,07,11,10,00,22.80
2014,07,11,10,01,22.80
2014,07,11,10,02,22.80
2014,07,11,10,03,22.80
2014,07,11,10,04,22.90
2014,07,11,10,05,22.90
2014,07,11,10,06,22.90
2014,07,11,10,07,22.90
2014,07,11,10,08,23.00
2014,07,11,10,09,23.20
2014,07,11,10,10,23.30
2014,07,11,10,11,23.20
2014,07,11,10,12,23.20
2014,07,11,10,13,23.10
2014,07,11,10,14,23.00
2014,07,11,10,15,22.90
2014,07,11,10,16,22.90
2014,07,11,10,17,22.90
2014,07,11,10,18,22.90
2014,07,11,10,19,22.90
2014,07,11,10,20,22.90
2014,07,11,10,21,22.90
2014,07,11,10,22,22.80
2014,07,11,10,23,22.70
2014,07,11,10,24,22.60
2014,07,11,10,25,22.70
2014,07,11,10,26,22.70
2014,07,11,10,27,22.80
2014,07,11,10,28,22.80
2014,07,11,10,29,22.80
2014,07,11,10,30,22.80
2014,07,11,10,31,22.90
2014,07,11,10,32,23.00
2014,07,11,10,33,23.10
2014,07,11,10,34,23.20
2014,07,11,10,35,23.30
2014,07,11,10,36,23.40
2014,07,11,10,37,23.50
2014,07,11,10,38,23.50
2014,07,11,10,39,23.40
2014,07,11,10,40,23.40
2014,07,11,10,41,23.40
2014,07,11,10,42,23.40
2014,07,11,10,43,23.40
2014,07,11,10,44,23.40
2014,07,11,10,45,23.30
2014,07,11,10,46,23.30
2014,07,11,10,47,23.30
2014,07,11,10,48,23.30
2014,07,11,10,49,23.30
2014,07,11,10,50,23.30
2014,07,11,10,51,23.30
2014,07,11,10,52,23.20
2014,07,11,10,53,23.20
2014,07,11,10,54,23.00
2014,07,11,10,55,22.90
2014,07,11,10,56,22.90
2014,07,11,10,57,23.00
2014,07,11,10,58,23.10
2014,07,11,10,59,23.10
2014,07,11,11,00,23.00
2014,07,11,11,01,23.10
2014,07,11,11,02,23.20
2014,07,11,11,03,23.20
2014,07,11,11,04,23.10
2014,07,11,11,05,23.10
2014,07,11,11,06,23.10
2014,07,11,11,07,23.20
2014,07,11,11,08,23.30
2014,07,11,11,09,23.20
2014,07,11,11,10,23.30
2014,07,11,11,11,23.40
2014,07,11,11,12,23.60
2014,07,11,11,13,23.70
2014,07,11,11,14,23.80
2014,07,11,11,15,23.70
2014,07,11,11,16,23.80
2014,07,11,11,17,23.80
2014,07,11,11,18,23.80
2014,07,11,11,19,23.60
2014,07,11,11,20,23.40
2014,07,11,11,21,23.30
2014,07,11,11,22,23.30
2014,07,11,11,23,23.20
2014,07,11,11,24,23.10
2014,07,11,11,25,22.90
2014,07,11,11,26,22.90
2014,07,11,11,27,22.90
2014,07,11,11,28,23.10
2014,07,11,11,29,23.20
2014,07,11,11,30,23.40
2014,07,11,11,31,23.60
2014,07,11,11,32,23.70
2014,07,11,11,33,23.80
2014,07,11,11,34,23.80
2014,07,11,11,35,23.90
2014,07,11,11,36,23.90
2014,07,11,11,37,24.00
2014,07,11,11,38,24.10
2014,07,11,11,39,24.10
2014,07,11,11,40,24.10
2014,07,11,11,41,24.10
2014,07,11,11,42,24.20
2014,07,11,11,43,24.20
2014,07,11,11,44,24.20
2014,07,11,11,45,24.30
2014,07,11,11,46,24.30
2014,07,11,11,47,24.20
2014,07,11,11,48,24.10
2014,07,11,11,49,24.10
2014,07,11,11,50,23.90
2014,07,11,11,51,23.90
2014,07,11,11,52,24.10
2014,07,11,11,53,24.10
2014,07,11,11,54,24.20
2014,07,11,11,55,24.30
2014,07,11,11,56,24.40
2014,07,11,11,57,24.30
2014,07,11,11,58,24.30
2014,07,11,11,59,24.20
2014,07,11,12,00,24.20
2014,07,11,12,01,24.30
2014,07,11,12,02,24.50
2014,07,11,12,03,24.60
2014,07,11,12,04,24.70
2014,07,11,12,05,24.70
2014,07,11,12,06,24.80
2014,07,11,12,07,24.80
2014,07,11,12,08,24.70
2014,07,11,12,09,24.60
2014,07,11,12,10,24.60
2014,07,11,12,11,24.70
2014,07,11,12,12,24.70
2014,07,11,12,13,24.80
2014,07,11,12,14,24.90
2014,07,11,12,15,25.00
2014,07,11,12,16,24.90
2014,07,11,12,17,24.80
2014,07,11,12,18,24.90
2014,07,11,12,19,25.00
2014,07,11,12,20,25.10
2014,07,11,12,21,24.90
2014,07,11,12,22,24.80
2014,07,11,12,23,24.80
2014,07,11,12,24,24.60
2014,07,11,12,25,24.50
2014,07,11,12,26,24.60
2014,07,11,12,27,24.60
2014,07,11,12,28,24.60
2014,07,11,12,29,24.60
2014,07,11,12,30,24.60
2014,07,11,12,31,24.70
2014,07,11,12,32,24.60
2014,07,11,12,33,24.70
2014,07,11,12,34,24.80
2014,07,11,12,35,25.00
2014,07,11,12,36,25.00
2014,07,11,12,37,25.00
2014,07,11,12,38,25.10
2014,07,11,12,39,25.20
2014,07,11,12,40,25.40
2014,07,11,12,41,25.50
2014,07,11,12,42,25.60
2014,07,11,12,43,25.60
2014,07,11,12,44,25.60
2014,07,11,12,45,25.60
2014,07,11,12,46,25.60
2014,07,11,12,47,25.70
2014,07,11,12,48,25.60
2014,07,11,12,49,25.70
2014,07,11,12,50,25.80
2014,07,11,12,51,25.90
2014,07,11,12,52,26.00
2014,07,11,12,53,26.10
2014,07,11,12,54,26.10
2014,07,11,12,55,26.10
2014,07,11,12,56,26.10
2014,07,11,12,57,26.00
2014,07,11,12,58,26.10
2014,07,11,12,59,26.30
2014,07,11,13,00,26.40
2014,07,11,13,01,26.30
2014,07,11,13,02,26.20
2014,07,11,13,03,26.00
2014,07,11,13,04,26.00
2014,07,11,13,05,26.00
2014,07,11,13,06,25.90
2014,07,11,13,07,25.90
2014,07,11,13,08,26.00
2014,07,11,13,09,26.10
2014,07,11,13,10,26.30
2014,07,11,13,11,26.30
2014,07,11,13,12,26.30
2014,07,11,13,13,26.40
2014,07,11,13,14,26.40
2014,07,11,13,15,26.40
2014,07,11,13,16,26.40
2014,07,11,13,17,26.40
2014,07,11,13,18,26.50
2014,07,11,13,19,26.50
2014,07,11,13,20,26.60
2014,07,11,13,21,26.60
2014,07,11,13,22,26.60
2014,07,11,13,23,26.70
2014,07,11,13,24,26.80
2014,07,11,13,25,26.90
2014,07,11,13,26,26.80
2014,07,11,13,27,26.60
2014,07,11,13,28,26.60
2014,07,11,13,29,26.60
2014,07,11,13,30,26.70
2014,07,11,13,31,26.80
2014,07,11,13,32,27.00
2014,07,11,13,33,27.10
2014,07,11,13,34,27.10
2014,07,11,13,35,27.10
2014,07,11,13,36,27.00
2014,07,11,13,37,26.70
2014,07,11,13,38,26.60
2014,07,11,13,39,26.60
2014,07,11,13,40,26.50
2014,07,11,13,41,26.60
2014,07,11,13,42,26.60
2014,07,11,13,43,26.50
2014,07,11,13,44,26.60
2014,07,11,13,45,26.60
2014,07,11,13,46,26.80
2014,07,11,13,47,26.80
2014,07,11,13,48,26.90
2014,07,11,13,49,27.00
2014,07,11,13,50,27.20
2014,07,11,13,51,27.30
2014,07,11,13,52,27.30
2014,07,11,13,53,27.40
2014,07,11,13,54,27.40
2014,07,11,13,55,27.30
2014,07,11,13,56,27.30
2014,07,11,13,57,27.30
2014,07,11,13,58,27.30
2014,07,11,13,59,27.30
2014,07,11,14,00,27.20
2014,07,11,14,01,27.10
2014,07,11,14,02,27.10
2014,07,11,14,03,27.20
2014,07,11,14,04,27.30
2014,07,11,14,05,27.30
2014,07,11,14,06,27.50
2014,07,11,14,07,27.70
2014,07,11,14,08,27.80
2014,07,11,14,09,27.90
2014,07,11,14,10,27.80
2014,07,11,14,11,27.80
2014,07,11,14,12,27.90
2014,07,11,14,13,28.10
2014,07,11,14,14,28.10
2014,07,11,14,15,28.20
2014,07,11,14,16,28.20
2014,07,11,14,17,28.20
2014,07,11,14,18,28.20
2014,07,11,14,19,28.20
2014,07,11,14,20,28.10
2014,07,11,14,21,28.20
2014,07,11,14,22,28.20
2014,07,11,14,23,28.20
2014,07,11,14,24,28.00
2014,07,11,14,25,27.80
2014,07,11,14,26,27.70
2014,07,11,14,27,27.70
2014,07,11,14,28,27.70
2014,07,11,14,29,27.70
2014,07,11,14,30,27.50
2014,07,11,14,31,27.40
2014,07,11,14,32,27.30
2014,07,11,14,33,27.20
2014,07,11,14,34,27.20
2014,07,11,14,35,27.20
2014,07,11,14,36,27.30
2014,07,11,14,37,27.40
2014,07,11,14,38,27.50
2014,07,11,14,39,27.60
2014,07,11,14,40,27.50
2014,07,11,14,41,27.40
2014,07,11,14,42,27.40
2014,07,11,14,43,27.30
2014,07,11,14,44,27.20
2014,07,11,14,45,27.10
2014,07,11,14,46,27.10
2014,07,11,14,47,27.10
2014,07,11,14,48,27.20
2014,07,11,14,49,27.30
2014,07,11,14,50,27.30
2014,07,11,14,51,27.30
2014,07,11,14,52,27.30
2014,07,11,14,53,27.30
2014,07,11,14,54,27.40
2014,07,11,14,55,27.60
2014,07,11,14,56,27.60
2014,07,11,14,57,27.50
2014,07,11,14,58,27.40
2014,07,11,14,59,27.40
2014,07,11,15,00,27.30
2014,07,11,15,01,27.40
2014,07,11,15,02,27.50
2014,07,11,15,03,27.60
2014,07,11,15,04,27.70
2014,07,11,15,05,27.80
2014,07,11,15,06,27.90
2014,07,11,15,07,27.90
2014,07,11,15,08,27.80
2014,07,11,15,09,27.70
2014,07,11,15,10,27.80
2014,07,11,15,11,27.80
2014,07,11,15,12,27.90
2014,07,11,15,13,28.00
2014,07,11,15,14,28.10
2014,07,11,15,15,27.90
2014,07,11,15,16,27.90
2014,07,11,15,17,27.90
2014,07,11,15,18,27.90
2014,07,11,15,19,28.00
2014,07,11,15,20,28.20
2014,07,11,15,21,28.40
2014,07,11,15,22,28.40
2014,07,11,15,23,28.30
2014,07,11,15,24,28.20
2014,07,11,15,25,28.10
2014,07,11,15,26,28.00
2014,07,11,15,27,28.00
2014,07,11,15,28,28.00
2014,07,11,15,29,27.90
2014,07,11,15,30,27.80
2014,07,11,15,31,28.00
2014,07,11,15,32,27.90
2014,07,11,15,33,27.90
2014,07,11,15,34,27.90
2014,07,11,15,35,27.80
2014,07,11,15,36,27.70
2014,07,11,15,37,27.70
2014,07,11,15,38,27.80
2014,07,11,15,39,28.00
2014,07,11,15,40,28.00
2014,07,11,15,41,27.90
2014,07,11,15,42,27.90
2014,07,11,15,43,28.00
2014,07,11,15,44,28.10
2014,07,11,15,45,28.10
2014,07,11,15,46,28.00
2014,07,11,15,47,27.90
2014,07,11,15,48,27.90
2014,07,11,15,49,28.10
2014,07,11,15,50,28.30
2014,07,11,15,51,28.40
2014,07,11,15,52,28.40
2014,07,11,15,53,28.60
2014,07,11,15,54,28.70
2014,07,11,15,55,28.80
2014,07,11,15,56,28.70
2014,07,11,15,57,28.60
2014,07,11,15,58,28.50
2014,07,11,15,59,28.40
2014,07,11,16,00,28.40
2014,07,11,16,01,28.40
2014,07,11,16,02,28.40
2014,07,11,16,03,28.40
2014,07,11,16,04,28.30
2014,07,11,16,05,28.30
2014,07,11,16,06,28.30
2014,07,11,16,07,28.20
2014,07,11,16,08,28.40
2014,07,11,16,09,28.50
2014,07,11,16,10,28.60
2014,07,11,16,11,28.70
2014,07,11,16,12,28.80
2014,07,11,16,13,28.80
2014,07,11,16,14,28.90
2014,07,11,16,15,29.10
2014,07,11,16,16,29.20
2014,07,11,16,17,29.30
2014,07,11,16,18,29.20
2014,07,11,16,19,29.20
2014,07,11,16,20,29.20
2014,07,11,16,21,29.20
2014,07,11,16,22,29.20
2014,07,11,16,23,29.30
2014,07,11,16,24,29.30
2014,07,11,16,25,29.30
2014,07,11,16,26,29.30
2014,07,11,16,27,29.40
2014,07,11,16,28,29.40
2014,07,11,16,29,29.40
2014,07,11,16,30,29.30
2014,07,11,16,31,29.30
2014,07,11,16,32,29.20
2014,07,11,16,33,29.10
2014,07,11,16,34,29.00
2014,07,11,16,35,29.10
2014,07,11,16,36,29.10
2014,07,11,16,37,29.00
2014,07,11,16,38,28.90
2014,07,11,16,39,28.90
2014,07,11,16,40,28.90
2014,07,11,16,41,28.70
2014,07,11,16,42,28.60
2014,07,11,16,43,28.60
2014,07,11,16,44,28.50
2014,07,11,16,45,28.40
2014,07,11,16,46,28.50
2014,07,11,16,47,28.60
2014,07,11,16,48,28.60
2014,07,11,16,49,28.70
2014,07,11,16,50,28.80
2014,07,11,16,51,28.90
2014,07,11,16,52,28.90
2014,07,11,16,53,28.90
2014,07,11,16,54,28.80
2014,07,11,16,55,28.70
2014,07,11,16,56,28.70
2014,07,11,16,57,28.60
2014,07,11,16,58,28.60
2014,07,11,16,59,28.60
2014,07,11,17,00,28.60
2014,07,11,17,01,28.50
2014,07,11,17,02,28.50
2014,07,11,17,03,28.60
2014,07,11,17,04,28.60
2014,07,11,17,05,28.60
2014,07,11,17,06,28.60
2014,07,11,17,07,28.50
2014,07,11,17,08,28.40
2014,07,11,17,09,28.40
2014,07,11,17,10,28.20
2014,07,11,17,11,28.00
2014,07,11,17,12,28.10
2014,07,11,17,13,28.10
2014,07,11,17,14,28.10
2014,07,11,17,15,28.00
2014,07,11,17,16,28.10
2014,07,11,17,17,28.00
2014,07,11,17,18,28.00
2014,07,11,17,19,28.00